Regional Weather Roundup
Issued by NWS Grand Forks, ND

Home | Current Version | Previous Version | Graphics & Text | Print | Product List | Glossary On
Versions: 1 2 3 4 5 6 7 8 9 10 11 12 13 14 15 16 17 18 19 20 21 22 23 24 25 26 27 28 29 30 31 32 33 34 35 36 37 38 39 40 41 42 43 44 45 46 47 48 49 50
000
ASUS43 KFGF 210810
RWRFGF
PRAIRIE TO PINES  WEATHER ROUNDUP
NATIONAL WEATHER SERVICE EASTERN NORTH DAKOTA/GRAND FORKS ND
200 AM CST FRI NOV 21 2014

 **SATELLITE DATA USED TO AUGMENT SKY COVER AT AUTOMATED STATIONS**
 *****  WEATHER ACROSS EASTERN NORTH DAKOTA  *****

CITY           SKY/WX    TMP DP  RH WIND       PRES   REMARKS
GRAND FORKS    PTCLDY    14   7  73 S20G26    29.97F WCI  -3
GRAND FRKS AFB PTCLDY    14   8  75 SW16G22   29.95F WCI  -2
GRAND FRKS NWS   N/A     12 N/A N/A S15         N/A  WCI  -4
DEVILS LAKE    CLOUDY    18   7  62 S12G20    29.83F WCI   5
FARGO          MOCLDY    12   4  70 S13       30.06F WCI  -3
WAHPETON ARPT  MOSUNNY    7   1  78 SE12      30.10F WCI  -9
$$

 ***** WEATHER ACROSS CENTRAL AND WESTERN NORTH DAKOTA  *****

CITY           SKY/WX    TMP DP  RH WIND       PRES   REMARKS
BISMARCK       PTCLDY    19  17  92 S10       29.87F WCI   7
MINOT          CLEAR     24  17  74 S12       29.72F WCI  13
JAMESTOWN      PTCLDY    13   8  81 S16       29.90F WCI  -3
MINOT AFB      CLEAR     22  19  87 SW6       29.72F WCI  15
GARRISON         N/A     22  18  85 S12       29.77F WCI  10
WILLISTON      PTCLDY    19  15  84 SW7       29.74S WCI  10
DICKINSON      PTCLDY    25  19  78 SW5       29.75F WCI  19
HETTINGER      MOCLDY    20  15  81 NW3       29.81F
$$

 *****  OTHER AIRPORT OBSERVATIONS IN OUR AREA  *****

CITY           SKY/WX    TMP DP  RH WIND       PRES   REMARKS
WALHALLA         N/A     18  10  73 S12       29.86F WCI   5
GRAFTON AIRPOR FAIR      16   9  73 S17       29.95F WCI   0
VALLEY CITY AR PTSUNNY   10   9  92 S16       29.95F WCI  -7
CANDO          CLOUDY    16  14  93 S12       29.82F WCI   3
CAVALIER APRT  FAIR      16  10  79 S14G21    29.89F WCI   1
GWINNER        SUNNY     14   9  79 S12       30.02F WCI   0
SHEYENNE NWR     N/A     10   4  75 S8        29.95S WCI  -2
ROLLA          PTSUNNY   14  10  85 SW21      29.75F WCI  -4
 ***** THE ABOVE OBSERVATIONS ARE NON NWS ARE NOT QUALITY
       CONTROLLED AND MAY MIS-REPORT RAIN FOR SNOW...
$$

  *****  WEATHER ACROSS NORTHERN MINNESOTA  *****

CITY           SKY/WX    TMP DP  RH WIND       PRES   REMARKS
FLAG ISLAND    CLOUDY    14   7  73 S16       29.98F WCI  -2
WARROAD        MOCLDY    12   7  79 S10       29.99F WCI  -1
ROSEAU         MOCLDY    12   7  79 S14       29.98F WCI  -3
HALLOCK        PTCLDY    16   9  73 S21G26    29.94F WCI  -2
THF RVR FALLS  MOCLDY    12   7  79 S17       30.00F WCI  -5
BAUDETTE       MOCLDY     9   3  77 S7        30.01F WCI  -2
WASKISH        MOCLDY     9   5  85 CALM      30.06S
CROOKSTON      CLEAR     12   7  79 S20       30.02F WCI  -6
$$
  *****  WEATHER ACROSS CENTRAL AND WEST MINNESOTA  *****

CITY           SKY/WX    TMP DP  RH WIND       PRES   REMARKS
FOSSTON        PTCLDY     7   1  78 S10       30.03F WCI  -8
BEMIDJI        PTCLDY     7   2  81 S8        30.05F WCI  -6
PARK RAPIDS    MOCLDY     6   1  80 SE8       30.08F WCI  -7
ELBOW LAKE       N/A      5   1  83 SE14      30.11F WCI -12
WADENA         PTCLDY     5   1  85 S7        30.10F WCI  -7
DETROIT LAKES  PTCLDY    12   7  79 S12       30.06F WCI  -2
MOORHEAD       PTCLDY    10   7  85 S15       30.07F WCI  -6
FERGUS FALLS   CLEAR      7   1  78 S13       30.14F WCI  -9
MORRIS MN      PTCLDY     1  -2  85 SE10      30.13F WCI -14
STAPLES        PTCLDY     3   1  92 SE6       30.12F WCI  -8
$$
  *****  WEATHER ELSEWHERE ACROSS MINNESOTA  *****

CITY           SKY/WX    TMP DP  RH WIND       PRES   REMARKS
DULUTH         MOCLDY     1  -5  75 SW7       30.15R WCI -12
INTRNTL FALLS  MOCLDY     2  -3  80 SE5       30.07F WCI  -8
ELY            MOCLDY    -6  -9  84 CALM      30.11S
CLOQUET        PTCLDY     1  -6  71 SW5       30.17R WCI  -8
WHEATON        PTCLDY     1  -2  85 SE12      30.13F WCI -15
BRAINERD       PTCLDY     0  -3  87 S3        30.15F
HIBBING        MOCLDY    -6 -12  75 CALM      30.13S
ALEXANDRIA     PTCLDY     7   1  76 S10       30.13F WCI  -8
SAINT CLOUD    PTCLDY    -4 -10  75 SE3       30.21F
MINNEAPOLIS    MOCLDY     6   2  83 CALM      30.27S
$$

  *****  WEATHER ACROSS SOUTH DAKOTA  *****

CITY           SKY/WX    TMP DP  RH WIND       PRES   REMARKS
SIOUX FALLS    PTCLDY    15   9  76 S12       30.15F WCI   2
BROOKINGS      NOT AVBL
WATERTOWN      MOCLDY     8   4  83 S14       30.05F WCI  -8
HURON          PTCLDY    14   9  80 S15G23    30.06F WCI  -1
SISSETON         N/A      8   4  83 S14       30.06F WCI  -8
ABERDEEN       PTCLDY    13   7  77 S15       30.01F WCI  -3
MITCHELL       PTCLDY    16  12  84 SE17      30.11F WCI   0
PIERRE         PTCLDY    19  15  84 SE9       29.91F WCI   8
MOBRIDGE       PTCLDY    21  18  88 S15       29.88F WCI   8
RAPID CITY     PTCLDY    22  18  85 CALM      29.84F
$$

  *****  SOME WEATHER IN NEARBY STATES *****

CITY           SKY/WX    TMP DP  RH WIND       PRES   REMARKS
GLASGOW MT     PTCLDY    20  15  81 SE6       29.72F WCI  12
GREAT FALLS MT PTCLDY    38  24  57 SW17      29.77S
CHEYENNE WY    CLOUDY    40  20  44 W13       29.96F
SCOTTSBLUFF NE MOCLDY    27  19  72 NE5       29.93F WCI  22
OMAHA NE       PTCLDY    19  14  81 SE5       30.27F WCI  12
DES MOINES IA  PTCLDY    14   8  77 S6        30.32R WCI   5
DAVENPORT IA   PTCLDY     6  -1  73 CALM      30.36S
CHICAGO IL     CLEAR     13   3  64 NW7       30.35R WCI   3
EAU CLAIRE WI  PTCLDY     1  -4  79 SW3       30.29R
LA CROSSE WI   PTCLDY     5   0  79 SE6       30.34R WCI  -6
$$

  *****  SOME NATIONAL WEATHER *****

CITY           SKY/WX    TMP DP  RH WIND       PRES   REMARKS
LA GUARDIA NY  CLEAR     30   9  41 W15G22    30.08R WCI  19
RALEIGH NC     CLEAR     31  26  82 CALM      30.21R
ATLANTA GA     PTCLDY    41  33  73 NW6       30.28R
NEW ORLEANS LA CLEAR     51  44  77 S3        30.24R
OKLAHOMA CITY  CLOUDY    48  42  80 E8        30.04F
ALBUQUERQUE NM CLEAR     37  12  35 CALM      30.06S
SALT LAKE CITY PTCLDY    30  24  78 SE6       30.00F WCI  24
LOS ANGELES CA PTCLDY    61  55  81 W10       29.99R
BOISE ID       CLOUDY    23  19  86 CALM      30.07S FOG
SEATTLE WA     CLOUDY    48  45  89 SE6       29.91F
$$

*** WEATHER ACROSS MANITOBA...SASKATCHEWAN AND ONTARIO ***
                ***ONTARIO***

CITY           SKY/WX    TMP DP  RH WIND       PRES   REMARKS
GERALDTON      CLEAR     -9 -15  77 SW6       30.05R WCI -23
THUNDER BAY    CLEAR     -4  -6  92 W3        30.18R
SIOUX LOOKOUT  CRYSTALS   5   1  85 SW5       30.01F WCI  -4
TORONTO        PTCLDY    21  14  73 W12       30.07R WCI   9
BIG TROUT LK   PTCLDY    -6  -9  84 W10G17    29.87F WCI -23
PICKLE LAKE    NOT AVBL
DRYDEN         CLOUDY     3   0  85 S10       29.99  WCI -12
KENORA         MOCLDY     9   5  85 S13       29.95F WCI  -7
$$
                *** MANITOBA***

CITY           SKY/WX    TMP DP  RH WIND       PRES   REMARKS
BRANDON        PTCLDY    14   9  79 S5        29.74F WCI   6
DAUPHIN        NOT AVBL
ISLAND LAKE    CLOUDY     5  -2  72 S8        29.78F WCI  -8
PILOT MOUND      N/A     16  12  86 S18G24      N/A  WCI  -1
THE PAS        LGT SNOW  18  16  93 S12       29.55F FOG     WCI   5
THOMPSON       LGT SNOW   5   0  78 VRB2      29.63F
WINNIPEG       CLOUDY    14   7  73 S21       29.86F WCI  -4
LYNN LAKE      LGT SNOW   9   7  92 SE8       29.48F WCI  -4
CHURCHILL      CRYSTALS  -9 -13  84 W7        29.74F WCI -24
GILLAM         CLOUDY    -6 -11  77 S5        29.74F WCI -17
$$
                ***SASKATCHEWAN***

CITY           SKY/WX    TMP DP  RH WIND       PRES   REMARKS
ESTEVAN        PTCLDY    19  18  93 SW10      29.68F WCI   8
KINDERSLEY     CLOUDY    28  27  93 VRB2      29.49S
LLOYDMINSTER   CLOUDY    34  30  86 W13       29.45F WCI  25
PRINCE ALBERT  FRZ RAIN  23  21  93 W2        29.49F
REGINA         MOCLDY    21  18  86 SE8       29.61F WCI  12
YORKTON        PTCLDY    18  14  86 S8        29.60F WCI   7
N. BATTLEFORD  CLOUDY    30  27  86 S2        29.49F
LA RONGE       FRZ DRZL  23  21  93 S6        29.43F WCI  16
SASKATOON      CLOUDY    28  25  86 SW7       29.51F WCI  21
SWIFT CURRENT  CLOUDY    34  27  75 SW17      29.54F WCI  23
$$
NOTE: THESE ARE AUTOMATED STATIONS WITH LIMITED QUALITY CONTROL
      "FAIR" INDICATES FEW OR NO CLOUDS BELOW 12,000 FEET WITH NO
      SIGNIFICANT WEATHER AND/OR OBSTRUCTIONS TO VISIBILITY.
      SKY/WX - SKY CONDITION AND SIGNIFICANT WEATHER.
      TMP - AIR TEMPERATURE.    DP   - DEWPOINT TEMPERATURE.
      RH  - RELATIVE HUMIDITY.  PRES - PRESSURE.
      HX  - HEAT INDEX.         WCI  - WIND CHILL INDEX.
$



USA.gov is the U.S. government's official web portal to all federal, state and local government web resources and services.